Wetbulb
69.37 70.46 70.68 71.57 71.57 71.55 71.99 71.74 71.78 71.70 71.77 69.33 70.12 68.16 67.20 70.94 70.68 71.40 70.35 76.38 76.08 76.08 76.07 76.34 76.36 76.93 77.57 77.15 77.58 77.53 77.27 77.23 77.21 77.24 76.95 76.69 76.66 77.35 77.20 76.22 75.69 75.06 74.24
71.46 71.05 70.80 70.78 71.74 71.15 71.47 70.71 71.33 71.01 71.37 71.14 70.57 71.78 70.99 70.44 71.06 71.09 71.30 73.55 76.77 76.60 76.77 76.47 76.36 77.70 78.26 78.08 77.67 77.14 77.11 77.15 76.59 76.32 76.34 76.67 77.41 76.93 76.22 75.49 75.04 74.59 74.21
70.21 69.81 69.74 70.91 71.36 71.39 72.10 71.43 70.82 71.64 71.40 70.45 69.71 70.47 71.32 70.79 71.47 71.68 72.21 71.75 74.73 77.16 77.12 76.96 77.11 78.06 78.80 77.80 77.48 77.21 77.10 76.70 76.50 76.37 77.03 76.65 76.17 75.42 75.22 74.82 74.29 73.82 73.59
69.69 67.16 68.69 70.27 71.11 71.25 71.79 71.05 71.62 71.85 70.20 68.90 68.47 69.73 70.09 70.45 70.91 71.96 71.91 73.08 72.66 74.25 76.95 77.17 77.44 78.51 78.47 77.47 77.18 77.01 77.05 76.78 77.08 76.80 76.10 75.77 75.30 75.00 74.72 74.34 74.26 73.67 73.25
69.40 67.50 65.90 66.81 67.36 69.65 71.00 70.37 69.30 70.52 69.46 68.46 69.62 69.13 68.71 69.67 69.48 70.99 68.19 69.93 73.28 73.59 74.07 76.68 77.85 78.12 77.90 77.46 77.29 76.81 76.45 76.30 76.07 75.65 75.32 75.10 74.65 74.17 73.87 74.32 74.22 74.04 73.76
68.35 69.05 68.12 67.72 66.50 71.35 69.77 66.20 66.29 68.14 69.71 69.55 69.63 69.44 68.28 66.49 68.47 68.93 68.34 68.80 70.66 74.30 73.92 73.66 75.90 75.65 77.58 77.40 77.49 76.64 76.14 75.67 75.25 75.07 74.77 74.35 74.07 73.65 73.43 73.65 73.57 73.39 73.25
67.05 65.98 65.58 66.73 68.86 72.60 70.53 68.40 68.41 70.90 70.91 69.65 66.14 67.70 67.27 65.94 67.99 66.50 68.26 66.81 69.64 72.88 73.10 74.60 73.64 74.58 75.90 77.21 77.33 77.18 76.34 75.56 75.19 74.79 74.57 74.62 74.49 74.47 73.94 72.85 72.78 72.83 73.25
66.86 69.19 69.18 71.09 72.58 72.34 70.19 72.25 72.77 69.97 70.30 68.37 67.02 66.29 62.29 62.93 65.70 67.43 67.18 67.85 68.88 69.54 71.40 73.65 72.94 73.37 73.81 74.20 75.41 77.43 76.93 75.66 75.32 74.46 75.24 75.45 74.54 73.32 72.73 72.35 72.23 72.94 72.89
72.51 72.04 69.58 73.05 73.03 72.52 70.76 70.87 72.42 71.64 67.16 64.66 68.49 67.00 62.20 59.40 60.50 66.41 65.93 69.12 67.41 66.94 68.94 71.05 71.01 73.92 73.64 73.18 75.70 76.07 76.32 75.65 75.96 76.14 75.12 74.27 73.25 72.21 71.42 71.67 72.42 72.48 72.60
72.77 73.27 73.45 72.88 72.13 72.59 70.28 69.93 73.42 68.26 63.68 63.77 67.29 69.38 68.01 63.20 59.70 61.54 67.06 68.40 66.87 66.77 66.32 70.62 65.97 71.61 73.97 73.39 74.59 74.40 75.28 74.90 75.34 75.29 74.67 73.47 72.28 71.42 70.70 70.43 71.15 71.54 71.49
73.28 74.33 73.28 72.94 73.35 72.79 72.76 72.18 72.56 72.79 71.47 68.67 68.48 66.10 65.99 65.27 67.62 64.70 63.64 63.38 68.81 67.68 67.93 69.19 70.09 71.37 74.39 73.94 72.94 73.40 74.39 74.15 74.19 74.19 73.40 72.12 71.47 70.67 70.09 69.84 69.86 69.84 69.55
72.73 72.82 73.81 73.57 73.62 73.65 72.72 71.51 73.08 73.47 73.06 71.76 70.02 67.97 67.46 66.68 65.00 63.51 61.33 65.56 65.84 67.34 68.37 68.30 69.68 70.47 73.27 71.76 73.35 74.18 74.01 73.38 72.83 72.26 71.82 71.40 70.14 69.47 68.82 68.52 68.35 68.69 68.66
71.05 71.27 72.95 73.05 73.59 73.72 73.03 72.04 72.60 72.92 72.43 72.60 72.14 70.81 70.97 69.66 69.37 67.12 64.89 66.42 64.85 67.12 67.82 69.59 67.89 71.23 75.71 72.78 72.72 73.42 73.48 71.98 70.93 70.20 69.67 69.75 69.50 68.60 67.57 66.99 66.83 66.76 66.22
70.81 71.52 73.53 73.89 74.10 73.97 73.55 73.87 72.09 71.92 71.61 71.95 72.47 72.16 72.83 71.34 70.84 69.85 68.38 66.69 63.77 65.94 66.87 66.99 70.45 71.67 72.97 72.92 71.63 73.23 71.00 70.30 69.40 68.76 68.21 68.12 67.94 67.76 66.90 66.26 65.90 65.25 64.65
73.37 72.52 73.34 73.78 73.55 73.23 72.11 72.16 72.54 72.27 72.51 71.25 71.88 72.79 72.62 71.99 71.54 69.89 68.58 68.31 64.93 63.74 64.59 67.25 67.63 70.92 72.72 73.53 72.26 70.43 69.13 69.59 68.83 67.91 67.09 66.86 66.61 66.41 65.70 64.71 64.47 63.79 63.20
71.43 72.16 72.76 72.54 73.07 73.20 73.42 73.19 72.20 71.92 71.30 72.03 71.88 70.56 69.75 70.16 71.12 70.71 69.44 68.87 68.89 66.45 64.94 67.83 70.95 71.10 73.01 73.80 73.31 71.22 69.15 69.35 68.49 67.36 66.51 65.85 65.69 65.41 64.99 64.21 63.61 62.79 62.24
70.32 71.40 71.09 70.97 70.15 71.35 72.31 70.52 72.43 71.90 71.26 70.03 70.54 70.31 70.75 69.95 69.80 70.32 71.19 70.85 69.40 68.59 65.45 66.85 71.56 73.18 70.16 71.84 72.09 70.61 69.91 67.29 67.26 66.65 66.16 65.25 64.50 64.41 64.05 63.65 63.08 62.16 61.37
70.31 70.22 70.11 68.58 66.54 65.11 71.41 71.46 71.15 71.51 70.83 69.83 67.87 66.69 70.69 73.01 70.88 71.00 70.87 70.48 70.49 68.44 66.88 65.02 68.96 69.77 71.21 72.16 70.49 68.40 69.69 71.60 67.01 67.14 65.74 64.39 63.27 62.98 62.50 62.04 61.69 60.95 60.24
70.54 69.19 66.34 69.94 67.35 66.62 70.92 71.41 70.68 71.51 71.64 71.41 70.73 70.62 70.82 70.98 70.10 71.05 70.48 70.06 71.01 71.61 69.60 68.24 67.63 70.39 70.67 71.38 70.66 71.63 71.63 67.50 67.97 66.10 64.30 63.02 62.17 61.64 61.11 60.39 59.28 58.04 57.26
71.93 70.51 68.97 68.46 71.92 71.68 72.13 72.03 72.48 72.06 71.69 71.92 71.78 71.48 71.52 71.52 70.33 69.96 70.96 70.50 70.82 69.91 69.49 69.03 69.05 69.21 69.47 70.29 70.47 69.18 68.43 66.71 63.72 64.87 63.84 61.80 60.91 60.55 60.34 59.24 58.06 56.75 55.52
72.47 71.78 70.95 71.81 71.89 72.78 73.02 71.53 71.81 71.96 71.81 71.33 71.74 72.03 72.16 72.72 72.16 70.63 71.73 70.93 70.42 69.92 69.55 69.10 68.52 68.52 68.72 68.02 67.26 68.78 68.36 68.81 64.80 63.87 60.24 58.33 56.88 57.28 57.73 57.85 57.15 56.03 55.02
70.81 71.45 71.38 70.95 71.17 72.57 70.07 69.35 71.69 71.46 71.49 71.30 70.41 70.92 72.20 72.41 71.70 69.53 68.92 69.20 70.88 70.14 68.96 69.17 68.25 67.66 67.93 69.08 69.41 68.38 67.41 66.26 65.91 63.24 58.33 56.16 55.72 54.23 55.69 54.65 56.24 55.09 54.14
70.33 70.60 70.65 71.36 71.06 71.34 67.95 65.58 67.23 70.93 71.04 70.70 70.36 71.36 71.78 73.11 70.88 71.53 70.26 67.08 67.28 66.94 68.10 69.05 68.49 68.27 67.95 68.63 69.19 68.47 68.02 68.04 67.52 62.29 60.93 56.29 55.22 54.14 54.40 55.58 56.70 55.32 54.40
69.43 69.38 70.42 70.60 70.82 67.50 63.70 63.74 65.92 67.32 70.00 71.37 71.11 71.17 70.93 70.95 71.22 70.71 70.91 70.59 70.22 66.85 66.82 69.85 68.58 64.02 62.18 61.33 64.36 65.74 65.75 67.27 64.60 61.73 64.14 55.02 54.18 52.36 53.89 54.88 55.98 55.33 53.94
70.21 69.12 69.88 69.85 69.27 63.70 62.07 62.61 64.62 67.80 69.59 69.95 70.09 69.84 70.33 70.49 63.45 62.83 68.35 68.15 67.97 59.79 59.60 59.98 59.98 59.98 60.16 60.68 61.55 65.06 62.69 63.57 64.78 59.78 58.55 56.46 53.32 51.79 52.98 53.24 54.81 54.71 54.07
68.99 68.76 68.13 66.69 64.24 63.65 61.75 61.45 62.92 66.88 67.86 68.92 68.69 64.65 62.07 63.54 59.44 58.87 65.75 66.96 66.81 64.25 59.51 58.73 60.10 60.54 60.64 60.27 60.48 59.27 59.23 61.10 60.98 57.44 56.32 54.79 53.42 52.26 49.31 51.95 51.59 53.21 53.08
MSLP
1018.66 1018.32 1018.26 1018.47 1018.68 1018.63 1018.80 1018.41 1018.01 1018.55 1019.24 1019.34 1020.97 1019.93 1019.24 1018.69 1018.53 1017.91 1018.34 1018.00 1018.36 1018.42 1018.38 1018.42 1018.56 1018.74 1018.90 1018.87 1018.71 1018.65 1018.65 1018.63 1018.61 1018.54 1018.49 1018.45 1018.40 1018.32 1018.38 1018.38 1018.69 1018.76 1018.79
1018.86 1018.58 1018.81 1018.75 1018.67 1018.49 1018.39 1018.36 1017.78 1017.97 1018.66 1018.92 1019.06 1019.00 1018.95 1017.47 1017.54 1017.69 1017.78 1018.02 1018.14 1018.24 1018.21 1018.39 1018.56 1018.74 1018.90 1018.90 1018.79 1018.77 1018.70 1018.62 1018.70 1018.71 1018.60 1018.54 1018.40 1018.47 1018.65 1018.80 1018.89 1018.93 1018.94
1020.04 1018.99 1018.88 1018.48 1018.65 1017.81 1017.80 1017.65 1017.70 1017.88 1018.01 1017.68 1017.67 1017.28 1017.43 1017.21 1016.94 1016.99 1017.32 1018.12 1018.03 1018.18 1018.18 1018.33 1018.57 1018.76 1018.88 1018.97 1019.00 1019.03 1018.90 1018.76 1018.68 1018.71 1018.69 1018.65 1018.62 1018.73 1018.83 1018.92 1018.96 1018.92 1018.95
1018.95 1018.83 1018.31 1018.74 1018.75 1018.80 1017.99 1018.14 1018.16 1017.95 1017.92 1017.71 1017.42 1017.42 1017.38 1017.05 1016.86 1016.76 1017.04 1017.27 1017.88 1017.93 1018.28 1018.54 1018.55 1018.64 1018.88 1019.02 1019.19 1019.21 1019.08 1018.92 1018.83 1018.85 1018.99 1018.96 1018.92 1018.94 1018.92 1018.92 1018.91 1018.89 1018.86
1018.17 1018.08 1017.65 1018.62 1018.93 1019.33 1018.06 1018.32 1018.41 1018.43 1018.12 1017.90 1017.57 1017.60 1017.56 1018.17 1018.33 1018.11 1018.68 1018.78 1017.44 1018.07 1017.97 1018.48 1018.64 1018.68 1018.83 1019.00 1019.21 1019.32 1019.31 1019.24 1019.22 1019.25 1019.22 1019.17 1019.20 1019.23 1019.18 1019.02 1018.93 1018.87 1018.80
1018.97 1018.49 1018.35 1019.02 1019.61 1019.60 1018.47 1018.46 1018.21 1018.28 1018.38 1018.21 1017.65 1018.10 1018.99 1019.18 1018.39 1018.74 1018.74 1018.71 1019.21 1017.82 1018.02 1018.43 1018.49 1018.62 1018.84 1019.01 1019.15 1019.34 1019.37 1019.47 1019.51 1019.49 1019.44 1019.37 1019.40 1019.47 1019.42 1019.29 1019.17 1019.06 1018.84
1018.83 1018.56 1018.54 1019.59 1019.99 1019.39 1018.76 1018.33 1018.15 1018.78 1018.84 1018.47 1018.26 1019.28 1019.56 1019.41 1018.68 1018.45 1018.44 1019.02 1019.25 1019.35 1018.42 1018.34 1018.58 1018.62 1018.72 1018.87 1019.13 1019.32 1019.38 1019.57 1019.67 1019.66 1019.64 1019.54 1019.48 1019.55 1019.52 1019.40 1019.24 1019.06 1018.88
1018.60 1018.62 1018.59 1019.19 1018.97 1019.01 1018.83 1018.77 1018.78 1019.10 1019.41 1019.09 1019.27 1019.88 1020.66 1019.98 1019.19 1018.41 1018.94 1019.42 1019.92 1019.80 1019.66 1020.00 1019.37 1018.89 1018.94 1018.78 1018.95 1019.19 1019.38 1019.44 1019.65 1019.60 1019.49 1019.48 1019.55 1019.59 1019.58 1019.45 1019.30 1019.21 1019.11
1017.87 1018.09 1018.13 1018.52 1017.83 1018.24 1018.35 1018.76 1018.87 1018.92 1019.53 1019.96 1019.27 1020.02 1020.89 1021.01 1021.12 1020.25 1019.78 1019.96 1019.47 1019.30 1020.06 1019.57 1019.52 1019.98 1019.26 1018.75 1018.71 1019.03 1019.32 1019.41 1019.52 1019.61 1019.71 1019.73 1019.67 1019.64 1019.63 1019.59 1019.52 1019.47 1019.31
1016.79 1017.08 1017.63 1017.67 1017.70 1017.96 1018.13 1018.74 1018.78 1018.83 1019.65 1019.77 1019.48 1019.67 1020.44 1020.82 1021.12 1021.46 1020.21 1019.54 1019.22 1019.32 1019.16 1019.37 1019.17 1019.46 1019.77 1018.92 1018.55 1018.70 1019.12 1019.34 1019.54 1019.66 1019.77 1019.82 1019.78 1019.77 1019.76 1019.74 1019.73 1019.69 1019.58
1016.89 1016.98 1017.21 1017.49 1017.67 1017.95 1018.39 1018.45 1018.66 1019.06 1019.20 1019.12 1019.23 1019.61 1019.67 1020.69 1020.73 1021.26 1020.69 1020.01 1019.87 1019.29 1018.92 1019.08 1018.65 1018.92 1019.21 1018.88 1018.72 1018.65 1018.86 1019.19 1019.50 1019.71 1019.80 1019.89 1019.94 1019.89 1019.91 1019.90 1019.91 1019.88 1019.77
1016.97 1016.86 1017.10 1017.40 1017.57 1017.84 1018.22 1018.26 1018.50 1018.78 1019.03 1019.15 1019.10 1019.79 1020.08 1020.44 1020.54 1021.08 1020.98 1020.53 1020.42 1019.67 1018.59 1018.43 1018.61 1019.30 1019.48 1018.97 1018.56 1018.70 1018.97 1019.09 1019.39 1019.70 1019.89 1020.00 1020.03 1020.02 1020.03 1020.03 1020.01 1019.96 1019.94
1016.98 1016.95 1017.13 1017.42 1017.67 1017.65 1017.96 1018.12 1018.41 1018.48 1018.59 1018.95 1019.22 1019.95 1019.93 1019.97 1019.77 1019.97 1020.09 1020.00 1019.86 1019.27 1019.04 1017.95 1017.97 1018.08 1018.31 1018.83 1018.36 1018.70 1019.05 1019.05 1019.20 1019.59 1019.87 1020.07 1020.19 1020.20 1020.20 1020.22 1020.25 1020.27 1020.28
1016.48 1016.53 1016.82 1016.89 1017.16 1017.34 1017.49 1017.76 1018.14 1018.18 1018.26 1018.58 1018.88 1018.93 1019.07 1018.95 1019.23 1018.85 1019.07 1019.35 1019.25 1019.11 1019.10 1018.28 1018.23 1017.57 1017.62 1018.76 1018.94 1018.58 1019.08 1019.14 1018.90 1019.24 1019.72 1020.04 1020.24 1020.33 1020.39 1020.46 1020.55 1020.63 1020.69
1015.49 1015.54 1015.75 1016.57 1016.67 1016.90 1017.08 1017.37 1017.81 1017.94 1018.15 1018.31 1018.44 1018.56 1018.64 1018.57 1018.63 1018.38 1018.44 1018.30 1018.79 1018.86 1018.46 1017.63 1017.82 1017.33 1017.74 1017.79 1018.90 1018.48 1018.71 1019.16 1019.20 1019.16 1019.52 1019.91 1020.25 1020.47 1020.60 1020.68 1020.76 1020.86 1020.91
1015.07 1015.29 1015.61 1016.15 1016.50 1016.56 1016.67 1016.91 1017.37 1017.78 1018.07 1018.16 1018.16 1018.22 1018.31 1018.42 1018.42 1018.32 1018.10 1017.98 1018.27 1018.52 1018.58 1018.00 1017.90 1017.72 1017.55 1018.11 1018.41 1017.94 1018.22 1018.72 1019.01 1019.11 1019.41 1019.80 1020.19 1020.51 1020.68 1020.79 1020.91 1020.98 1021.02
1014.95 1015.21 1015.49 1016.00 1016.21 1016.45 1016.69 1016.83 1016.89 1017.23 1017.78 1017.90 1017.89 1017.96 1018.07 1017.94 1017.92 1017.85 1017.73 1017.66 1017.93 1018.23 1018.69 1018.06 1017.54 1017.54 1018.01 1017.79 1017.73 1017.80 1018.08 1018.66 1018.89 1019.22 1019.52 1019.84 1020.12 1020.34 1020.45 1020.60 1020.79 1020.99 1021.22
1014.53 1014.86 1015.38 1015.78 1015.80 1016.19 1016.31 1016.67 1016.85 1016.91 1017.17 1017.49 1017.67 1017.66 1017.72 1017.59 1017.59 1017.51 1017.67 1017.89 1017.93 1018.10 1018.06 1018.15 1017.86 1017.76 1017.57 1017.47 1017.36 1018.08 1018.41 1018.62 1019.02 1019.32 1019.77 1020.01 1020.22 1020.50 1020.62 1020.63 1020.72 1020.97 1021.21
1014.47 1014.44 1014.89 1015.39 1015.54 1015.93 1016.27 1016.41 1016.49 1016.66 1016.66 1016.93 1017.14 1017.16 1017.01 1017.20 1017.59 1017.57 1017.46 1017.61 1017.79 1017.85 1017.86 1017.90 1017.80 1017.33 1017.41 1017.25 1017.59 1017.88 1018.02 1018.74 1019.07 1019.24 1019.61 1019.90 1020.17 1020.52 1020.70 1020.87 1020.92 1021.05 1021.36
1013.84 1013.95 1014.40 1014.77 1015.03 1015.26 1015.57 1016.01 1016.06 1016.11 1016.19 1016.42 1016.63 1016.75 1016.67 1016.78 1017.09 1017.15 1017.26 1017.23 1017.30 1017.64 1017.76 1017.78 1017.64 1017.52 1017.46 1017.21 1017.26 1017.50 1017.96 1018.60 1019.15 1019.43 1019.83 1020.09 1020.18 1020.49 1020.74 1020.94 1021.26 1021.26 1021.47
1013.23 1013.28 1013.66 1014.09 1014.33 1014.62 1014.94 1015.32 1015.49 1015.63 1015.74 1016.01 1016.06 1016.14 1016.11 1016.19 1016.24 1016.41 1016.69 1016.78 1016.88 1017.18 1017.46 1017.60 1017.69 1017.58 1017.36 1017.28 1017.38 1017.22 1017.36 1017.59 1018.49 1018.54 1019.22 1019.75 1020.44 1020.75 1020.94 1021.10 1021.29 1021.50 1021.60
1013.01 1012.94 1013.19 1013.67 1013.99 1014.16 1014.42 1014.69 1014.91 1015.19 1015.36 1015.53 1015.76 1015.61 1015.58 1015.78 1015.93 1016.11 1016.18 1016.20 1016.36 1016.83 1017.14 1017.30 1017.37 1017.40 1017.15 1017.05 1017.02 1017.03 1017.07 1017.47 1018.08 1018.18 1018.80 1019.79 1020.18 1020.43 1020.55 1020.96 1021.22 1021.65 1021.85
1013.17 1012.79 1013.01 1013.37 1013.72 1013.88 1014.13 1014.39 1014.74 1014.90 1014.77 1014.97 1015.37 1015.34 1015.46 1015.48 1015.58 1015.72 1015.69 1015.66 1015.97 1016.23 1016.38 1016.61 1016.83 1016.87 1017.01 1017.00 1016.77 1016.76 1016.87 1017.10 1017.25 1017.71 1018.18 1019.31 1019.63 1020.10 1020.31 1020.69 1021.12 1021.49 1021.87
1013.30 1012.54 1012.69 1013.01 1013.20 1013.74 1014.04 1014.14 1014.42 1014.45 1014.56 1014.51 1014.53 1014.70 1015.06 1015.23 1015.32 1015.42 1015.49 1015.57 1015.77 1016.19 1016.54 1016.51 1016.68 1017.06 1017.24 1017.26 1017.07 1016.82 1016.85 1016.97 1017.59 1018.13 1018.12 1019.14 1019.86 1020.56 1020.69 1020.71 1021.21 1021.42 1022.00
1012.28 1012.08 1012.35 1012.59 1013.00 1014.08 1014.31 1014.42 1014.35 1014.39 1014.30 1014.12 1014.20 1014.54 1014.85 1015.02 1015.22 1015.16 1015.31 1015.57 1015.74 1016.61 1016.87 1016.63 1016.93 1017.28 1017.41 1017.33 1017.16 1016.97 1016.98 1017.14 1017.48 1018.10 1018.43 1018.92 1020.17 1020.97 1021.16 1021.32 1021.38 1021.32 1021.86
1011.79 1010.96 1012.45 1013.11 1013.69 1014.38 1014.31 1014.58 1014.57 1014.41 1014.36 1014.10 1014.23 1014.68 1014.90 1015.04 1015.30 1015.15 1015.32 1015.48 1015.73 1016.29 1016.98 1017.32 1017.37 1017.39 1017.43 1017.40 1017.20 1017.22 1017.42 1017.45 1017.61 1018.15 1018.70 1019.19 1020.06 1020.56 1021.53 1021.48 1021.56 1022.06 1022.17
Wind_Speed
4 4 3 3 4 4 4 5 6 4 11 7 15 13 13 10 8 3 3 10 9 8 7 6 6 5 4 5 7 7 6 6 6 5 6 7 7 7 10 11 11 9 8
3 2 5 4 4 4 4 5 4 4 7 9 14 14 17 4 8 6 4 4 11 8 7 7 6 5 6 8 8 8 7 8 7 6 6 6 9 11 11 11 9 8 6
4 4 3 4 3 3 3 6 4 1 4 3 3 3 2 5 1 3 5 5 5 8 7 8 7 7 8 8 8 8 8 9 9 8 8 12 12 11 10 9 7 7 6
9 6 4 4 6 7 3 4 3 4 4 5 3 4 3 2 3 4 5 6 4 4 6 8 8 10 9 9 8 8 9 10 11 12 12 11 10 9 8 6 5 5 5
8 5 3 3 7 7 2 2 0 3 1 1 3 3 1 8 8 11 14 14 5 6 5 9 9 9 10 10 10 10 10 10 11 10 10 10 9 8 7 6 5 5 5
4 8 2 6 5 9 2 3 1 2 3 1 2 5 7 6 6 6 10 11 10 6 6 5 5 5 9 9 10 10 11 10 10 8 8 7 7 6 3 4 5 6 6
11 7 5 3 7 6 4 3 3 4 4 3 3 4 3 7 8 3 7 8 12 8 2 8 4 3 5 9 9 11 12 10 9 8 7 6 5 5 6 7 8 8 8
11 8 8 5 8 4 5 2 1 1 2 6 3 4 5 6 7 8 6 4 3 3 8 10 4 5 5 4 7 9 11 10 8 5 8 7 9 8 7 7 8 10 11
16 13 7 7 1 3 2 1 2 4 2 3 7 5 0 2 2 4 5 5 5 3 5 4 8 5 5 5 9 9 9 9 7 10 11 10 8 8 7 7 8 9 9
6 7 7 4 2 2 0 1 1 2 3 3 2 3 5 4 0 3 3 3 5 8 6 5 13 11 8 4 11 12 11 10 8 8 8 7 7 7 6 6 8 8 8
6 6 6 5 4 2 2 3 2 2 2 3 2 2 2 2 2 4 4 4 3 4 4 7 11 5 7 6 5 9 13 11 9 8 7 7 7 6 6 6 6 7 5
5 6 7 6 6 5 4 2 1 1 3 4 2 3 2 2 3 3 3 3 4 4 5 4 4 4 2 3 8 12 12 13 11 9 7 7 6 6 6 5 5 5 5
4 6 7 6 5 5 5 5 4 3 1 2 3 6 5 5 2 4 3 3 4 3 3 3 2 4 3 4 7 12 14 13 13 11 9 7 6 6 6 5 5 5 5
4 7 7 8 7 7 6 4 3 3 3 3 4 4 3 3 3 3 3 3 3 4 1 6 2 6 5 2 6 14 8 12 14 13 11 9 7 7 6 5 5 5 6
4 9 11 8 7 7 6 5 3 3 2 3 4 3 2 2 1 1 2 2 3 3 3 2 1 2 4 7 10 6 7 11 12 13 12 11 9 7 7 6 6 6 6
5 6 5 5 5 7 7 7 4 2 1 3 3 3 1 1 1 3 2 2 3 3 2 1 3 3 6 7 10 8 8 13 13 13 13 12 10 9 8 7 6 6 6
7 8 7 6 5 3 4 5 5 4 3 4 3 5 5 3 4 1 2 2 2 2 2 3 2 4 5 5 6 4 7 6 6 10 11 11 11 10 9 9 8 7 6
8 8 7 7 4 3 3 6 6 5 3 6 6 3 5 4 3 3 1 3 2 1 3 2 2 1 3 6 4 5 4 3 4 9 9 8 8 7 7 9 9 9 9
9 8 8 7 8 7 7 6 7 7 6 7 7 6 5 4 4 3 2 2 0 1 1 2 3 1 0 1 3 4 6 5 3 12 10 9 8 7 7 8 9 10 10
8 8 8 9 8 8 7 7 7 7 6 6 6 6 6 5 6 5 4 4 3 2 1 2 2 2 2 3 1 3 3 3 5 5 5 5 8 9 9 9 9 10 10
10 9 7 7 7 6 6 7 7 7 7 7 7 6 6 6 9 7 4 5 4 3 3 3 3 2 2 2 2 2 3 4 3 4 4 4 3 3 4 9 9 11 10
7 7 7 7 7 7 10 12 9 6 7 7 7 7 6 7 6 10 12 11 5 4 4 3 3 4 4 3 2 2 2 3 3 4 3 3 5 5 5 4 11 11 11
8 7 7 6 7 7 8 2 5 6 6 7 7 6 5 5 6 4 7 6 7 8 10 4 5 4 3 0 1 2 3 2 2 5 4 3 3 3 4 6 14 13 12
9 7 6 8 7 5 6 4 0 4 5 7 7 7 7 6 7 5 4 4 4 4 1 2 2 3 3 2 1 1 1 2 5 3 1 3 2 4 4 6 13 14 12
7 5 2 4 4 6 8 7 4 3 5 7 6 5 5 5 3 4 1 3 4 4 7 13 13 12 10 9 6 1 1 1 2 2 3 3 2 3 2 3 4 13 10
4 7 7 7 8 6 5 2 1 2 5 4 4 7 11 6 6 6 2 1 3 5 7 5 4 6 6 7 10 6 2 1 1 2 1 3 3 4 3 2 3 3 3
Wind_Direction
225 200 174 230 239 231 225 257 240 178 183 155 173 207 243 246 194 165 198 178 175 169 157 139 122 133 131 104 85 80 73 57 36 23 30 59 70 76 80 75 67 68 56
352 54 16 350 268 237 227 239 227 228 175 198 180 201 209 162 163 168 170 181 186 179 168 142 123 130 122 95 89 76 64 56 49 47 71 88 92 88 84 79 72 70 63
343 74 27 336 7 271 223 212 243 6 269 219 196 256 184 174 153 106 163 167 172 174 172 157 141 136 108 93 82 71 70 70 74 82 90 89 88 87 84 81 76 69 64
53 16 39 352 332 305 12 330 11 322 235 217 197 227 242 201 169 215 150 158 144 155 162 165 155 135 120 108 91 77 76 77 83 84 90 91 89 88 85 82 79 69 57
66 63 343 314 310 310 22 27 300 278 37 298 244 262 235 34 35 46 34 9 148 156 148 168 161 142 131 121 111 99 94 89 88 95 99 97 91 76 62 44 39 23 25
178 205 190 273 335 268 348 216 197 321 346 9 42 42 67 25 44 54 27 30 335 175 142 159 151 139 131 127 122 114 112 110 109 111 108 102 94 96 98 55 37 45 31
188 197 173 253 266 281 256 306 40 20 331 343 50 88 107 28 21 58 37 21 352 329 154 161 159 150 145 146 141 134 126 121 124 129 133 138 134 101 78 64 51 37 27
177 171 190 221 235 178 182 332 302 14 12 28 88 70 9 334 2 349 19 346 299 311 29 12 2 157 156 156 147 147 141 130 139 127 168 132 105 91 76 65 53 44 54
172 173 198 213 29 66 68 169 9 79 42 63 56 116 84 191 278 348 311 272 326 342 96 65 5 314 199 164 146 150 147 138 135 98 106 110 106 94 85 68 62 56 48
191 181 177 171 189 140 324 183 147 101 136 75 227 96 90 133 158 311 278 262 345 298 89 84 13 305 252 171 158 155 152 138 133 126 120 117 112 106 96 81 70 60 44
184 190 181 182 191 168 245 231 97 138 187 114 136 51 75 148 151 235 281 307 310 307 311 160 199 230 210 168 151 156 150 141 134 134 137 135 128 119 111 98 86 82 82
205 187 183 180 195 193 203 175 210 111 89 116 90 116 184 184 193 171 221 278 267 262 265 304 192 66 252 186 155 155 154 148 144 145 143 137 134 126 119 110 102 92 77
189 207 181 183 192 192 188 182 159 163 143 147 190 182 195 197 188 204 148 232 232 271 296 253 287 92 109 222 149 163 168 157 151 151 149 143 140 135 127 117 105 92 81
187 194 183 185 197 193 182 180 190 200 189 219 246 243 225 210 154 200 169 181 295 230 237 248 124 162 182 81 218 171 173 173 159 155 156 155 150 140 137 127 108 92 78
209 200 182 173 188 188 196 189 211 233 193 219 228 266 249 333 120 207 195 201 145 333 278 341 77 210 161 177 215 175 161 183 172 160 161 161 157 149 139 129 117 108 95
121 114 122 124 228 193 189 182 192 253 321 244 169 100 296 173 341 244 234 149 171 158 332 270 62 148 176 184 199 178 167 176 182 173 167 162 157 152 146 139 128 114 99
159 145 155 150 158 144 201 179 195 189 201 233 230 178 241 216 254 253 317 357 51 121 143 304 354 174 191 193 173 150 146 179 185 179 165 161 161 162 155 143 133 119 104
164 165 154 177 198 247 221 200 199 212 195 231 251 242 233 239 270 280 260 289 99 126 127 254 257 314 231 213 176 141 175 194 180 170 165 161 159 160 154 144 127 110 98
183 180 163 186 196 206 227 210 204 217 209 217 226 236 230 230 222 230 239 284 125 205 205 191 268 254 291 18 105 194 167 87 116 146 148 147 143 149 149 135 125 120 115
188 194 178 192 201 201 204 215 205 211 221 227 234 230 226 218 218 229 232 228 226 232 257 290 291 282 243 270 198 203 187 127 128 139 144 156 150 154 147 135 135 133 128
204 194 189 194 202 197 217 220 218 212 215 228 238 249 233 227 220 211 203 234 221 224 215 219 241 244 252 296 244 225 210 148 142 153 146 145 148 140 159 154 155 147 130
212 196 195 197 203 214 215 217 218 213 217 218 229 242 243 248 238 236 235 230 200 204 231 203 220 232 247 226 215 234 195 161 183 169 114 156 176 172 164 157 159 149 132
236 201 197 196 210 213 229 129 222 239 219 209 218 221 238 240 251 257 262 238 222 217 218 211 232 229 253 271 289 283 234 225 200 154 132 127 159 126 158 158 158 149 137
243 216 201 205 206 106 81 66 237 228 246 228 209 208 214 234 248 251 247 242 250 81 71 210 192 68 58 6 6 143 216 96 72 56 344 120 99 77 84 129 150 144 144
245 227 202 203 179 97 76 45 11 282 247 233 214 223 234 240 72 70 250 267 225 102 68 92 102 98 75 52 20 268 82 255 221 127 16 100 113 94 135 147 168 160 169
150 118 93 81 105 108 59 23 290 260 277 245 235 92 57 90 80 64 108 327 244 157 144 128 123 79 66 51 46 54 11 273 107 113 163 95 146 152 158 256 168 212 183